This is the latest recevied weather packets stored in our database for station/object OM2RC-6. If no packets are shown the sender has not sent any weather packets the latest 10 day(s).
| Time | Temp. | Humidity | Pressure | Rain* | Wind** | Luminosity | Snow |
|---|---|---|---|---|---|---|---|
| 1778176321 | 16.11° C | 99% | 1014.5 hPa | - | - | - | - |
| 1778176015 | 16.11° C | 97% | 1014.4 hPa | - | - | - | - |
| 1778175714 | 16.67° C | 94% | 1014.3 hPa | - | - | - | - |
| 1778175411 | 16.67° C | 93% | 1014.2 hPa | - | - | - | - |
| 1778175110 | 16.67° C | 92% | 1014.2 hPa | - | - | - | - |
| 1778174809 | 17.22° C | 90% | 1014.2 hPa | - | - | - | - |
| 1778174508 | 17.22° C | 89% | 1014.1 hPa | - | - | - | - |
| 1778174205 | 17.22° C | 88% | 1014 hPa | - | - | - | - |
| 1778173904 | 17.78° C | 85% | 1013.9 hPa | - | - | - | - |
| 1778173603 | 17.78° C | 83% | 1013.8 hPa | - | - | - | - |
| 1778173302 | 17.78° C | 83% | 1013.7 hPa | - | - | - | - |
| 1778173001 | 18.33° C | 81% | 1013.7 hPa | - | - | - | - |
| 1778172699 | 18.33° C | 80% | 1013.7 hPa | - | - | - | - |
| 1778172398 | 18.33° C | 79% | 1013.6 hPa | - | - | - | - |
| 1778171795 | 18.89° C | 75% | 1013.5 hPa | - | - | - | - |
| 1778171493 | 19.44° C | 72% | 1013.4 hPa | - | - | - | - |
| 1778171192 | 20.56° C | 70% | 1013.4 hPa | - | - | - | - |
| 1778170891 | 21.11° C | 66% | 1013.2 hPa | - | - | - | - |
| 1778170288 | 20.56° C | 68% | 1013.4 hPa | - | - | - | - |
| 1778169987 | 20° C | 67% | 1013.5 hPa | - | - | - | - |
| 1778169685 | 19.44° C | 70% | 1013.4 hPa | - | - | - | - |
| 1778169383 | 19.44° C | 66% | 1013.4 hPa | - | - | - | - |
| 1778169078 | 20° C | 66% | 1013.5 hPa | - | - | - | - |
| 1778168777 | 19.44° C | 62% | 1013.6 hPa | - | - | - | - |
| 1778168476 | 19.44° C | 60% | 1013.7 hPa | - | - | - | - |
* Rain since midnight (hover to see other rain measurements)
** Current wind speed in m/s (hover to see current wind gust speed)